Terminal Aerodrome Forecast
Issued by NWS Pittsburgh, PA

Current Version | Previous Version | Graphics & Text | Print | Product List | Glossary On
Versions: 1 2 3 4 5 6 7 8 9 10 11 12 13 14 15 16 17 18 19 20 21 22 23 24 25 26 27 28 29 30 31 32 33 34
000
FTUS41 KPBZ 031127
TAFPIT
TAF
KPIT 031127Z 0312/0418 21006KT P6SM BKN050 BKN250
     FM031500 23010G17KT P6SM VCSH BKN040
     FM031800 23012G20KT 6SM -SHRA VCTS BKN050CB
     FM040200 27007KT P6SM BKN040
     FM040800 VRB03KT P6SM SCT040=

USA.gov is the U.S. government's official web portal to all federal, state and local government web resources and services.